Rogers, AR

9:42 AM CDT on March 26, 2017 (GMT -0500)
Rogers Municipal-Carter

Weather History for KROG - June, 2013

Change the Weather History Date:

Friday, June 14, 2013

  Actual Average Record
Temperature  
Mean Temperature 82 °F -  
Max Temperature 95 °F 78 °F 95 °F (2013)
Min Temperature 70 °F 61 °F 59 °F (1997)
Cooling Degree Days 18    
Growing Degree Days 32 (Base 50)    
Moisture  
Dew Point 69 °F    
Average Humidity 69    
Maximum Humidity 87    
Minimum Humidity 49    
Precipitation  
Precipitation 0.00 in - - ()
Sea Level Pressure  
Sea Level Pressure 29.98 in    
Wind  
Wind Speed 7 mph (SE)    
Max Wind Speed 12 mph    
Max Gust Speed 17 mph    
Visibility 10 miles    
Events      
Averages and records for this station are not official NWS values.
T = Trace of Precipitation, MM = Missing Value Source: NWS Daily Summary

Daily Weather History Graph

Daily Weather History Graph

Search for Another Location

Airport or City:

Trip Planner

Search our weather history database for the weather conditions in past years. The results will help you decide how hot, cold, wet, or windy it might be!

Date:

Astronomy

Jun. 14, 2013 Rise Set
Actual Time 5:58 AM CDT 8:35 PM CDT
Civil Twilight 5:27 AM CDT 9:06 PM CDT
Nautical Twilight 4:49 AM CDT 9:43 PM CDT
Astronomical Twilight 4:07 AM CDT 10:26 PM CDT
Moon 11:25 AM CDT (6/14) No Moon Set
Length of Visible Light 15h 38m
Length of Day
14h 37m
Waxing Crescent, 30% of the Moon is Illuminated
Jun 14
Waxing Crescent
Jun 16
First Quarter
Jun 23
Full
Jun 29
Last Quarter
Jul 8
New

Hourly Weather History & Observations

Time (CDT) Temp. Heat Index Dew Point Humidity Pressure Visibility Wind Dir Wind Speed Gust Speed Precip Events Conditions
12:57 AM 73.0 °F - 66.9 °F 81% 29.98 in 10.0 mi ESE 6.9 mph - N/A   Clear
1:57 AM 72.0 °F - 64.9 °F 78% 29.96 in 9.0 mi ESE 5.8 mph - N/A   Clear
2:57 AM 71.1 °F - 64.9 °F 81% 29.97 in 10.0 mi East 6.9 mph - N/A   Clear
3:57 AM 70.0 °F - 64.9 °F 84% 29.98 in 10.0 mi East 6.9 mph - N/A   Clear
4:57 AM 71.1 °F - 66.0 °F 84% 29.98 in 10.0 mi East 10.4 mph - N/A   Mostly Cloudy
5:57 AM 70.0 °F - 66.0 °F 87% 29.99 in 10.0 mi East 8.1 mph - N/A   Mostly Cloudy
6:57 AM 71.1 °F - 66.0 °F 84% 30.00 in 10.0 mi East 11.5 mph - N/A   Clear
7:57 AM 73.9 °F - 66.0 °F 76% 30.02 in 10.0 mi ESE 9.2 mph - N/A   Clear
8:57 AM 77.0 °F - 66.9 °F 71% 30.03 in 10.0 mi SSE 11.5 mph - N/A   Clear
9:57 AM 80.1 °F 82.7 °F 68.0 °F 67% 30.03 in 10.0 mi SE 8.1 mph - N/A   Clear
10:57 AM 84.9 °F 88.8 °F 69.1 °F 59% 30.02 in 10.0 mi Calm Calm - N/A   Clear
11:57 AM 86.0 °F 90.7 °F 70.0 °F 59% 30.01 in 10.0 mi SSE 11.5 mph 17.3 mph N/A   Clear
12:57 PM 90.0 °F 96.9 °F 72.0 °F 55% 30.00 in 10.0 mi SSW 4.6 mph - N/A   Scattered Clouds
1:57 PM 93.0 °F 100.7 °F 72.0 °F 50% 29.98 in 10.0 mi Variable 4.6 mph - N/A   Scattered Clouds
2:57 PM 95.0 °F 104.5 °F 73.0 °F 49% 29.97 in 10.0 mi ENE 5.8 mph - N/A   Scattered Clouds
3:57 PM 91.0 °F 99.3 °F 73.0 °F 55% 29.96 in 10.0 mi ESE 5.8 mph - N/A   Mostly Cloudy
4:57 PM 91.0 °F 99.3 °F 73.0 °F 55% 29.94 in 9.0 mi East 5.8 mph - N/A   Scattered Clouds
5:57 PM 90.0 °F 97.9 °F 73.0 °F 57% 29.93 in 10.0 mi SE 8.1 mph - N/A   Scattered Clouds
6:57 PM 87.1 °F 94.5 °F 73.0 °F 63% 29.93 in 10.0 mi SE 6.9 mph - N/A   Scattered Clouds
7:57 PM 86.0 °F 93.0 °F 73.0 °F 65% 29.93 in 10.0 mi SE 6.9 mph - N/A   Scattered Clouds
8:57 PM 82.9 °F 88.0 °F 72.0 °F 69% 29.94 in 10.0 mi South 9.2 mph - N/A   Partly Cloudy
9:57 PM 81.0 °F 85.2 °F 72.0 °F 74% 29.96 in 10.0 mi SE 6.9 mph - N/A   Clear
10:57 PM 78.1 °F - 71.1 °F 79% 29.98 in 10.0 mi ESE 5.8 mph - N/A   Clear
11:57 PM 77.0 °F - 69.1 °F 76% 29.99 in 10.0 mi SE 6.9 mph - N/A   Clear